THY10 KLAX-LTFM

Flight info

Callsign THY10
Flight time N/A
Altitude 31000
Route ORCKA5 LAS Q70 BLIPP Q842 WINEN DCT CKW DCT DDY J107 DPR/N0491F330 DCT GABOV DCT DUSMA DCT PELSI DCT LOPVI DCT PEPKI/M084F350 DCT NIFTY DCT 63N050W 64N040W 64N030W 64N020W 62N010W DCT GUNPA/N0484F350 DCT ELGIK/N0480F370 DCT KOSEB DCT BINKA DCT ATMEV DCT REGLI DCT REVMA DCT LITKU DCT DEGET DCT TIMUR L606 GASRU T390 RILEX
Aircraft B77W/H-SDE1E2E3FGHIJ2J3J4J5M1RWXY/LB1D1

Departure

Time N/A
Airport Los Angeles International Airport (KLAX)

Arrival

Time 2026-05-05 06:50
Airport İstanbul Airport (LTFM)
Time Latitude Longitude Altitude Speed Heading
2026-05-05 05:57 44.65647 23.25549 37083 ft 480 kts 143°
2026-05-05 05:57 44.62958 23.28339 37079 ft 480 kts 143°
2026-05-05 05:58 44.57586 23.33900 37082 ft 480 kts 143°
2026-05-05 05:58 44.52211 23.39451 37077 ft 480 kts 143°
2026-05-05 05:59 44.46832 23.44995 37091 ft 480 kts 143°
2026-05-05 05:59 44.44142 23.47763 37571 ft 481 kts 143°
2026-05-05 05:59 44.41411 23.50570 37327 ft 493 kts 142°
2026-05-05 06:00 44.38619 23.53436 37226 ft 501 kts 142°
2026-05-05 06:00 44.35794 23.56333 37152 ft 505 kts 142°
2026-05-05 06:00 44.30129 23.62130 37074 ft 505 kts 142°
2026-05-05 06:01 44.24510 23.67862 37047 ft 502 kts 142°
2026-05-05 06:01 44.18885 23.73591 37060 ft 500 kts 142°
2026-05-05 06:02 44.13279 23.79284 37053 ft 498 kts 142°
2026-05-05 06:02 44.07645 23.84996 37062 ft 497 kts 142°
2026-05-05 06:03 44.02092 23.90611 37056 ft 497 kts 143°
2026-05-05 06:03 43.96492 23.96256 37067 ft 498 kts 143°
2026-05-05 06:04 43.90883 24.01901 37064 ft 499 kts 143°
2026-05-05 06:04 43.85254 24.07553 37070 ft 500 kts 143°
2026-05-05 06:05 43.79612 24.13205 37072 ft 501 kts 143°
2026-05-05 06:05 43.73957 24.18857 37072 ft 502 kts 143°
2026-05-05 06:06 43.68348 24.24611 37067 ft 501 kts 139°
2026-05-05 06:06 43.63300 24.31208 37082 ft 500 kts 134°
2026-05-05 06:07 43.58334 24.37930 37093 ft 500 kts 134°
2026-05-05 06:07 43.53339 24.44611 37072 ft 500 kts 134°
2026-05-05 06:08 43.48323 24.51260 37066 ft 500 kts 135°
2026-05-05 06:08 43.43307 24.57884 37061 ft 499 kts 135°
2026-05-05 06:09 43.38290 24.64495 37078 ft 500 kts 135°
2026-05-05 06:09 43.33303 24.71056 37068 ft 500 kts 135°
2026-05-05 06:10 43.28279 24.77650 37066 ft 500 kts 135°
2026-05-05 06:10 43.23252 24.84229 37078 ft 499 kts 135°
2026-05-05 06:11 43.18222 24.90801 37072 ft 499 kts 135°
2026-05-05 06:11 43.13190 24.97360 37060 ft 500 kts 135°
2026-05-05 06:12 43.08154 25.03912 37063 ft 499 kts 135°
2026-05-05 06:12 43.03120 25.10448 37073 ft 499 kts 135°
2026-05-05 06:13 42.98081 25.16980 37069 ft 499 kts 135°
2026-05-05 06:13 42.93038 25.23503 37065 ft 499 kts 135°
2026-05-05 06:14 42.87989 25.30016 37051 ft 499 kts 135°
2026-05-05 06:14 42.82936 25.36523 37057 ft 500 kts 135°
2026-05-05 06:15 42.77874 25.43022 37063 ft 500 kts 135°
2026-05-05 06:15 42.72837 25.49474 37058 ft 501 kts 135°
2026-05-05 06:16 42.67767 25.55954 37071 ft 501 kts 136°
2026-05-05 06:16 42.62691 25.62427 37066 ft 500 kts 136°
2026-05-05 06:17 42.57619 25.68879 37057 ft 499 kts 136°
2026-05-05 06:17 42.52549 25.75312 37080 ft 499 kts 136°
2026-05-05 06:18 42.47482 25.81729 37075 ft 498 kts 136°
2026-05-05 06:18 42.42416 25.88130 37076 ft 498 kts 136°
2026-05-05 06:19 42.37350 25.94515 37075 ft 498 kts 136°
2026-05-05 06:19 42.32271 26.00906 37078 ft 499 kts 136°
2026-05-05 06:20 42.27248 26.07369 37074 ft 498 kts 131°
2026-05-05 06:20 42.23021 26.14740 37082 ft 496 kts 120°
2026-05-05 06:21 42.19623 26.22827 37095 ft 496 kts 117°
2026-05-05 06:21 42.16293 26.30967 37085 ft 496 kts 117°
2026-05-05 06:22 42.12920 26.39091 37074 ft 497 kts 117°
2026-05-05 06:22 42.09520 26.47187 36986 ft 498 kts 118°
2026-05-05 06:23 42.07816 26.51238 36191 ft 508 kts 118°
2026-05-05 06:23 42.06642 26.54027 35727 ft 506 kts 118°
2026-05-05 06:23 42.04340 26.59485 34604 ft 507 kts 118°
2026-05-05 06:23 42.03160 26.62279 34014 ft 508 kts 117°
2026-05-05 06:24 42.00844 26.67759 32684 ft 510 kts 118°
2026-05-05 06:24 41.99091 26.71904 31709 ft 510 kts 118°
2026-05-05 06:24 41.97334 26.76047 30991 ft 507 kts 119°
2026-05-05 06:24 41.95545 26.80054 30573 ft 498 kts 123°
2026-05-05 06:25 41.94172 26.82612 30175 ft 501 kts 129°
2026-05-05 06:25 41.91974 26.86185 29652 ft 504 kts 130°
2026-05-05 06:25 41.89702 26.89864 29217 ft 504 kts 129°
2026-05-05 06:25 41.87508 26.93440 28881 ft 502 kts 129°
2026-05-05 06:26 41.85300 26.97060 28167 ft 500 kts 129°
2026-05-05 06:26 41.83091 27.00698 27518 ft 494 kts 129°
2026-05-05 06:26 41.80964 27.04206 26877 ft 489 kts 129°
2026-05-05 06:26 41.78801 27.07772 26240 ft 484 kts 129°
2026-05-05 06:27 41.76715 27.11208 25624 ft 479 kts 129°
2026-05-05 06:27 41.72538 27.18075 24406 ft 472 kts 129°
2026-05-05 06:27 41.70470 27.21468 23804 ft 469 kts 129°
2026-05-05 06:28 41.68413 27.24837 23105 ft 466 kts 129°
2026-05-05 06:28 41.66368 27.28181 22443 ft 462 kts 128°
2026-05-05 06:28 41.64341 27.31492 21856 ft 458 kts 128°
2026-05-05 06:28 41.62335 27.34765 21245 ft 453 kts 128°
2026-05-05 06:29 41.60350 27.38002 20657 ft 449 kts 127°
2026-05-05 06:29 41.58377 27.41215 20078 ft 445 kts 127°
2026-05-05 06:29 41.56424 27.44392 19483 ft 441 kts 127°
2026-05-05 06:29 41.54485 27.47543 18920 ft 437 kts 126°
2026-05-05 06:30 41.52561 27.50669 18329 ft 435 kts 126°
2026-05-05 06:30 41.50647 27.53773 17677 ft 431 kts 126°
2026-05-05 06:30 41.48749 27.56850 17063 ft 427 kts 126°
2026-05-05 06:30 41.46870 27.59893 16489 ft 423 kts 126°
2026-05-05 06:31 41.45011 27.62900 15925 ft 418 kts 126°
2026-05-05 06:31 41.43168 27.65879 15362 ft 414 kts 126°
2026-05-05 06:31 41.41344 27.68824 14808 ft 410 kts 126°
2026-05-05 06:31 41.39536 27.71740 14262 ft 407 kts 126°
2026-05-05 06:32 41.37737 27.74637 13679 ft 404 kts 126°
2026-05-05 06:32 41.35952 27.77509 13080 ft 401 kts 126°
2026-05-05 06:32 41.34185 27.80350 12504 ft 397 kts 126°
2026-05-05 06:32 41.32443 27.83148 12197 ft 386 kts 126°
2026-05-05 06:33 41.30730 27.85901 12085 ft 387 kts 126°
2026-05-05 06:33 41.29018 27.88650 12078 ft 384 kts 126°
2026-05-05 06:33 41.27345 27.91326 12049 ft 368 kts 126°
2026-05-05 06:33 41.25738 27.93889 11980 ft 354 kts 126°
2026-05-05 06:34 41.24192 27.96354 11867 ft 341 kts 125°
2026-05-05 06:34 41.22700 27.98737 11806 ft 329 kts 125°
2026-05-05 06:34 41.21261 28.01036 11694 ft 319 kts 125°
2026-05-05 06:34 41.19865 28.03269 11548 ft 310 kts 124°
2026-05-05 06:35 41.18499 28.05450 11298 ft 306 kts 124°
2026-05-05 06:35 41.17143 28.07616 10984 ft 304 kts 124°
2026-05-05 06:35 41.15791 28.09773 10644 ft 304 kts 125°
2026-05-05 06:35 41.14441 28.11924 10307 ft 303 kts 124°
2026-05-05 06:36 41.13092 28.14075 9965 ft 302 kts 124°
2026-05-05 06:36 41.11749 28.16210 9607 ft 301 kts 125°
2026-05-05 06:36 41.10413 28.18332 9287 ft 299 kts 125°
2026-05-05 06:36 41.09102 28.20413 8948 ft 297 kts 125°
2026-05-05 06:37 41.07781 28.22507 8599 ft 296 kts 125°
2026-05-05 06:37 41.06449 28.24617 8283 ft 294 kts 125°
2026-05-05 06:37 41.05161 28.26658 7987 ft 292 kts 125°
2026-05-05 06:37 41.03861 28.28713 7669 ft 290 kts 125°
2026-05-05 06:38 41.02567 28.30763 7347 ft 289 kts 125°
2026-05-05 06:38 41.01283 28.32795 7107 ft 284 kts 125°
2026-05-05 06:38 41.00029 28.34773 6903 ft 279 kts 125°
2026-05-05 06:38 40.98781 28.36743 6539 ft 281 kts 125°
2026-05-05 06:39 40.97529 28.38734 6178 ft 280 kts 123°
2026-05-05 06:39 40.96468 28.40869 5802 ft 276 kts 115°
2026-05-05 06:39 40.95548 28.43092 5501 ft 274 kts 114°
2026-05-05 06:39 40.94646 28.45300 5213 ft 272 kts 114°
2026-05-05 06:40 40.93741 28.47475 5052 ft 265 kts 115°
2026-05-05 06:40 40.92859 28.49557 4993 ft 254 kts 116°
2026-05-05 06:40 40.92010 28.51533 4986 ft 242 kts 116°
2026-05-05 06:40 40.91169 28.53487 5000 ft 246 kts 116°
2026-05-05 06:41 40.90321 28.55449 5003 ft 245 kts 116°
2026-05-05 06:41 40.89510 28.57410 4985 ft 238 kts 107°
2026-05-05 06:41 40.89351 28.59481 5008 ft 226 kts 73°
2026-05-05 06:41 40.89829 28.61461 5024 ft 229 kts 67°
2026-05-05 06:42 40.90342 28.63458 5002 ft 229 kts 67°
2026-05-05 06:42 40.90849 28.65440 4993 ft 226 kts 67°
2026-05-05 06:42 40.91351 28.67391 4997 ft 222 kts 66°
2026-05-05 06:42 40.92087 28.69110 4993 ft 214 kts 38°
2026-05-05 06:43 40.93337 28.70180 5003 ft 217 kts 26°
2026-05-05 06:43 40.94672 28.71157 5012 ft 220 kts 27°
2026-05-05 06:43 40.95996 28.72139 5001 ft 216 kts 27°
2026-05-05 06:43 40.97283 28.73063 4980 ft 205 kts 20°
2026-05-05 06:44 40.98662 28.73311 5010 ft 201 kts 358°
2026-05-05 06:44 41.00089 28.73260 5007 ft 206 kts
2026-05-05 06:44 41.01500 28.73292 5000 ft 198 kts
2026-05-05 06:44 41.02839 28.73296 4947 ft 192 kts
2026-05-05 06:45 41.04173 28.73278 4699 ft 191 kts
2026-05-05 06:45 41.05496 28.73253 4441 ft 190 kts 360°
2026-05-05 06:45 41.06792 28.73226 4174 ft 187 kts 359°
2026-05-05 06:45 41.08076 28.73197 3957 ft 181 kts 360°
2026-05-05 06:46 41.09315 28.73169 3679 ft 174 kts 359°
2026-05-05 06:46 41.10509 28.73140 3454 ft 172 kts 359°
2026-05-05 06:46 41.11711 28.73111 3230 ft 173 kts 359°
2026-05-05 06:46 41.12925 28.73083 2981 ft 171 kts 359°
2026-05-05 06:47 41.14078 28.73056 2748 ft 163 kts 359°
2026-05-05 06:47 41.15177 28.73031 2529 ft 153 kts 359°
2026-05-05 06:47 41.16220 28.73006 2323 ft 149 kts 359°
2026-05-05 06:47 41.17265 28.72983 2145 ft 151 kts 359°
2026-05-05 06:48 41.18319 28.72960 1923 ft 152 kts 359°
2026-05-05 06:48 41.19374 28.72935 1736 ft 149 kts 359°
2026-05-05 06:48 41.20365 28.72912 1501 ft 137 kts 359°
2026-05-05 06:48 41.21316 28.72890 1351 ft 138 kts 358°
2026-05-05 06:49 41.22291 28.72865 1162 ft 140 kts 359°
2026-05-05 06:49 41.23259 28.72850 963 ft 139 kts 358°
2026-05-05 06:49 41.24213 28.72820 742 ft 136 kts 358°
2026-05-05 06:49 41.25146 28.72801 595 ft 133 kts 358°
2026-05-05 06:50 41.26088 28.72782 412 ft 139 kts 358°
2026-05-05 06:50 41.27030 28.72755 335 ft 126 kts 356°
2026-05-05 06:50 41.27734 28.72724 335 ft 75 kts
2026-05-05 06:50 41.28089 28.72730 338 ft 39 kts
2026-05-05 06:51 41.28341 28.72791 336 ft 35 kts 24°
2026-05-05 06:51 41.28408 28.72839 335 ft 33 kts 37°